Weather History for Eureka, NU

Change the Weather History Date:

Wednesday, January 9, 2013

  Actual Average Record
Temperature  
Mean Temperature -40 °F -  
Max Temperature -38 °F -29 °F -4 °F (2003)
Min Temperature -43 °F -42 °F -50 °F (2014)
Degree Days  
Heating Degree Days 106    
Moisture  
Dew Point -47 °F    
Average Humidity 70    
Maximum Humidity 82    
Minimum Humidity 52    
Precipitation  
Precipitation 0.00 in 0.00 in - ()
Sea Level Pressure  
Sea Level Pressure 29.74 in    
Wind  
Wind Speed 0 mph ()    
Max Wind Speed 2 mph    
Max Gust Speed -    
Visibility 14.6 miles    
Events Snow    
Averages and records for this station are not official NWS values.
T = Trace of Precipitation, MM = Missing Value Source: Averaged Metar Reports

Daily Weather History Graph

Daily Weather History Graph

Search for Another Location

Airport:

Trip Planner

Search our weather history database for the weather conditions in past years. The results will help you decide how hot, cold, wet, or windy it might be!

Date:

Astronomy

Dec. 31, 1969 Rise Set
Actual Time Sun does not rise Sun does not rise
Civil Twilight Sun does not rise Sun does not rise
Nautical Twilight 11:37 AM CST 12:05 PM CST
Astronomical Twilight 7:18 AM CST 4:24 PM CST
Moon No Moon Rise No Moon Set
Length of Visible Light 0h 00m
Length of Day
0h 00m
Waning Crescent, 6% of the Moon is Illuminated
Jan 9
Waning Crescent
Jan 11
New
Jan 18
First Quarter
Jan 26
Full
Feb 3
Last Quarter

Hourly Weather History & Observations

Time (CST) Temp. Dew Point Humidity Pressure Visibility Wind Dir Wind Speed Gust Speed Precip Events Conditions
12:00 AM -40.0 °F -47.2 °F 67% 29.72 in 15.0 mi Calm Calm - N/A   Clear
1:00 AM -40.0 °F -47.2 °F 67% 29.73 in 15.0 mi Calm Calm - N/A   Clear
2:00 AM -40.0 °F -47.2 °F 67% 29.74 in 15.0 mi Calm Calm - N/A   Clear
3:00 AM -38.2 °F -45.4 °F 67% 29.74 in 15.0 mi Calm Calm - N/A   Clear
4:00 AM -41.8 °F -47.2 °F 74% 29.74 in 15.0 mi Calm Calm - N/A   Clear
5:00 AM -41.8 °F -47.2 °F 74% 29.75 in 15.0 mi Calm Calm - N/A   Clear
6:00 AM -41 °F -46 °F 58% 29.75 in 15 mi Calm Calm - - Snow Snow
6:00 AM -41.8 °F -45.4 °F 82% 29.75 in 15.0 mi Calm Calm - N/A   Clear
7:00 AM -41.8 °F -47.2 °F 74% 29.75 in 15.0 mi Calm Calm - N/A   Clear
8:00 AM -40.0 °F -47.2 °F 67% 29.77 in 15.0 mi Calm Calm - N/A   Clear
9:00 AM -40.0 °F -45.4 °F 74% 29.78 in 15.0 mi SE 2.3 mph - N/A   Clear
11:00 AM -41.8 °F -47.2 °F 74% 29.78 in 15.0 mi Calm Calm - N/A   Partly Cloudy
12:00 PM -41 °F -47 °F 53% 29.78 in 15 mi Calm Calm - - Snow Snow
12:00 PM -41.8 °F -47.2 °F 74% 29.78 in 15.0 mi Calm Calm - N/A   Partly Cloudy
1:00 PM -43.6 °F -49.0 °F 74% 29.77 in 15.0 mi Calm Calm - N/A   Partly Cloudy
2:00 PM -41.8 °F -47.2 °F 74% 29.77 in 15.0 mi Calm Calm - N/A   Clear
3:00 PM -41.8 °F -49.0 °F 67% 29.75 in 15.0 mi Calm Calm - N/A   Clear
4:00 PM -41.8 °F -47.2 °F 74% 29.74 in 15.0 mi Calm Calm - N/A   Clear
5:00 PM -41.8 °F -47.2 °F 74% 29.73 in 15.0 mi Calm Calm - N/A   Clear
6:00 PM -41 °F -47 °F 52% 29.71 in 15 mi Calm Calm - - Snow Snow
7:00 PM -41.8 °F -47.2 °F 74% 29.70 in 15.0 mi West 2.3 mph - N/A   Clear
8:00 PM -41.8 °F -49.0 °F 67% 29.68 in 6.0 mi West 2.3 mph - N/A   Ice Crystals
9:00 PM -41.8 °F -47.2 °F 74% 29.65 in 15.0 mi Calm Calm - N/A   Clear